SCP
0 -0 -0 -0 0 0 0 0 0 0 0 -0 -0 -0 -0 -0 -0 -0 -0 -0 -0 -1 -1 -1 -1 -1 -1 -0 -0 -0 -0 -1 -1 -1 -0 -0 -0 -0 -0 -0 -0 -0 -0 -0 0 0 0 0 0
-0 -0 -0 0 0 0 0 0 0 0 0 0 -0 -0 -0 -0 -0 -0 0 -0 -0 -1 -1 -1 -1 -1 -1 -1 -0 -0 -0 -1 -1 -1 -1 -0 -0 -0 -0 -0 -0 -0 -0 -0 -0 0 0 0 0
-0 -0 0 0 0 0 0 0 -0 0 0 0 -0 0 -0 -0 -0 -0 0 -0 -1 -1 -0 -1 -1 -1 -0 -0 -0 -0 -0 -0 -0 -0 -0 -0 -0 -0 -0 -0 -0 -0 -0 -0 -0 0 0 0 0
0 -0 0 0 0 0 0 0 0 0 0 0 0 0 0 -0 -0 -0 -0 -0 -0 -0 -0 -0 -0 -0 -0 -0 -0 -0 -0 -0 -0 -0 -0 -0 -0 -0 -0 -0 -0 -0 -0 -0 -0 -0 0 0 0
0 0 0 0 0 0 0 0 0 0 0 0 0 0 0 0 0 0 0 0 -0 -0 0 -0 0 0 -0 -0 -0 -0 -0 -0 -0 -0 -0 -0 -0 -0 -0 -0 -0 -0 -0 0 0 0 -0 0 0
0 0 0 0 0 0 0 0 0 0 0 0 0 0 0 0 0 0 0 0 0 0 0 0 0 0 0 0 -0 0 0 -0 -0 -0 -0 -0 -0 -0 -0 -0 0 0 0 0 0 0 0 -0 0
0 0 0 0 0 0 0 0 0 0 0 0 0 0 0 0 0 0 0 0 0 0 0 0 0 0 0 0 0 0 0 0 0 0 0 0 0 0 0 0 0 0 0 0 0 0 0 0 0
0 0 0 0 0 0 0 0 0 0 0 0 0 0 0 0 0 0 0 0 0 0 0 0 0 0 0 0 0 0 0 0 0 0 0 0 0 0 0 0 0 0 0 0 0 0 0 0 0
0 0 0 0 0 0 0 0 0 0 0 0 0 0 0 0 0 1 1 0 0 0 0 0 1 1 1 0 0 0 0 0 0 0 0 0 0 0 0 0 0 0 0 0 0 0 0 0 0
0 0 0 0 0 0 0 0 0 0 0 0 0 0 0 0 0 0 0 0 0 0 0 0 1 1 1 1 1 1 0 0 0 0 0 0 0 0 0 0 0 0 0 0 0 0 0 0 0
0 0 0 0 0 0 0 0 0 0 0 0 0 0 0 0 0 0 0 0 0 1 1 1 1 1 1 1 2 1 1 1 0 0 0 0 0 0 0 0 0 0 0 0 0 0 0 0 0
0 0 0 0 0 0 0 0 0 0 0 0 0 0 0 0 0 0 0 0 0 0 0 1 1 1 1 1 1 1 1 1 1 0 0 0 0 0 0 0 0 0 0 0 0 0 0 0 0
0 0 0 0 0 0 0 0 0 0 0 0 0 0 0 0 0 0 0 0 0 0 0 1 1 1 1 1 2 1 1 1 1 0 0 0 0 0 0 0 0 0 0 0 0 0 0 0 0
0 0 0 0 0 0 0 0 0 0 0 0 0 0 0 0 0 0 0 0 0 0 -0 0 0 1 1 1 1 1 1 1 1 1 1 0 0 1 0 0 0 0 0 0 0 0 0 0 0
0 0 0 0 0 0 0 0 0 0 0 0 0 0 0 0 0 0 0 0 0 0 0 0 -0 0 0 1 1 1 1 1 1 1 1 0 0 0 0 0 0 0 0 0 0 1 0 0 0
0 0 0 0 0 0 0 0 0 0 0 0 0 0 0 0 0 0 0 0 0 0 0 1 0 -0 0 1 1 1 1 1 1 1 1 0 0 0 0 0 0 0 0 0 0 0 1 1 1
0 0 0 0 0 0 0 0 0 0 0 0 0 0 0 0 0 0 0 0 0 0 0 0 2 1 1 1 1 1 1 1 1 1 1 0 0 0 0 0 0 0 0 0 0 1 1 1 1
0 0 0 0 0 0 0 0 0 0 0 0 0 0 0 0 0 0 0 0 0 0 0 0 0 1 2 2 1 1 0 0 0 0 0 0 0 0 0 0 0 0 0 0 0 0 0 1 1
0 0 0 0 0 0 0 0 0 0 0 0 0 0 0 0 0 0 0 0 0 0 0 0 0 0 0 0 0 0 0 0 0 0 0 0 0 0 0 0 0 0 0 0 0 0 1 1 1
0 0 0 0 0 0 0 0 0 0 0 0 0 0 0 0 0 0 0 0 0 0 0 0 0 0 0 0 0 0 0 0 0 0 0 0 0 0 0 0 0 0 0 0 0 0 0 0 1
0 0 0 0 0 0 0 0 0 0 0 0 0 0 0 0 0 0 0 0 0 0 0 0 0 0 0 0 0 0 0 0 0 0 0 0 0 0 0 0 0 0 0 0 0 1 1 0 1
0 0 0 0 0 0 0 0 0 0 0 0 0 0 0 0 0 0 0 0 0 0 0 0 0 0 0 0 0 0 0 0 0 0 0 0 0 0 0 0 0 0 0 0 0 0 1 1 0
0 0 0 0 0 0 0 0 0 0 0 0 0 0 0 0 0 0 0 0 0 0 0 0 0 0 0 0 0 0 0 0 0 0 0 0 0 0 0 0 0 0 0 0 0 0 1 1 1
0 0 0 0 0 0 0 0 0 0 0 0 0 0 0 0 0 0 0 0 0 0 0 0 0 0 0 0 0 0 0 0 0 0 0 0 0 0 0 0 0 0 0 0 0 0 1 1 1
0 0 0 0 0 0 0 0 0 0 0 0 0 0 0 0 0 0 0 0 0 0 0 0 0 0 0 0 0 0 0 0 0 0 0 0 0 0 0 0 0 0 0 0 0 0 0 0 1
0 0 0 0 0 0 0 0 0 0 0 0 0 0 0 0 0 0 0 0 0 0 0 0 0 0 0 0 0 0 0 0 0 0 0 0 0 0 0 0 0 0 0 0 0 0 0 0 0
0 0 0 0 0 0 0 0 0 0 0 0 0 0 0 0 0 0 0 0 0 0 0 0 0 0 0 0 0 0 0 0 0 0 0 0 0 0 0 0 0 0 0 0 0 0 0 0 0
0 0 0 0 0 0 0 0 0 0 0 0 0 0 0 0 0 0 0 0 0 0 0 0 0 0 0 0 0 0 0 0 0 0 0 0 0 0 0 0 0 0 0 0 0 0 0 0 0
0 0 0 0 0 0 0 0 0 0 0 0 0 0 0 0 0 0 0 0 0 0 0 0 0 0 0 0 0 0 0 0 0 0 0 0 0 0 0 0 0 0 0 0 0 0 0 0 0
0 0 0 0 0 0 0 0 0 0 0 0 0 0 0 0 0 0 -0 -0 0 0 0 0 0 0 0 0 0 0 0 0 0 0 0 0 0 0 0 0 0 0 0 0 0 0 0 0 0
Wind_Speed_500mb
17 18 13 10 3 1 6 8 5 21 4 5 4 6 13 12 9 7 5 16 17 31 40 39 35 30 26 21 17 18 22 27 28 26 22 19 20 21 23 27 29 29 26 24 25 26 25 23 19
14 12 9 4 3 3 5 6 21 16 8 5 11 10 14 10 10 5 4 13 13 25 40 39 36 31 26 21 18 17 19 25 26 24 22 20 20 21 21 25 28 27 23 21 22 23 22 20 18
9 7 5 5 4 4 7 7 23 14 5 8 7 12 6 7 12 6 2 9 9 30 37 36 34 30 25 21 18 17 16 22 24 23 21 20 19 19 21 24 27 24 20 17 20 19 19 18 19
8 3 6 2 7 4 8 18 14 8 4 4 9 13 7 9 5 8 11 10 10 26 34 32 32 28 24 20 17 17 16 21 21 21 21 20 21 21 21 24 25 21 18 15 16 19 17 18 20
7 3 2 4 4 1 6 19 15 3 5 6 1 9 9 11 13 15 14 11 13 28 32 30 30 28 24 20 16 15 15 18 19 19 19 20 21 20 21 23 22 20 18 17 16 17 18 18 21
3 1 2 1 2 3 3 15 8 14 8 7 11 8 6 8 6 9 11 11 14 21 25 27 29 28 24 20 18 16 16 16 17 17 17 18 19 18 19 20 21 20 20 20 19 18 19 20 22
0 1 4 4 1 4 5 13 12 12 11 13 3 5 6 3 3 9 10 12 15 20 23 26 28 28 27 24 21 19 16 16 15 14 15 17 19 19 19 20 21 21 21 21 22 21 22 23 25
4 4 5 4 5 5 6 4 4 10 13 8 9 4 4 5 1 7 11 14 15 18 23 26 28 30 30 28 26 24 20 18 17 16 16 16 18 20 21 22 22 22 22 23 24 24 25 26 27
11 2 7 8 11 6 3 5 7 6 3 8 10 11 8 9 4 3 8 11 17 17 19 22 28 31 31 30 29 28 26 24 22 21 21 20 20 21 23 25 25 26 26 25 26 26 28 29 30
7 7 13 6 6 5 3 3 5 4 6 3 1 4 4 4 6 7 8 9 12 12 12 19 25 31 33 32 32 33 31 31 28 26 23 22 21 21 23 24 26 29 31 32 32 31 31 33 34
7 7 8 6 10 6 7 9 7 5 9 11 9 13 10 8 7 6 6 9 8 5 7 8 18 29 35 33 36 29 31 31 27 24 24 24 22 22 22 24 27 30 33 36 38 38 38 39 39
7 8 11 5 11 10 9 6 8 15 11 7 10 14 13 12 13 13 13 9 5 6 7 11 15 23 32 33 28 27 28 23 23 21 19 20 22 22 22 23 26 29 31 35 40 43 46 45 47
6 2 4 2 13 18 9 16 11 16 10 19 22 16 17 20 17 19 15 11 8 6 10 13 20 24 27 35 30 29 25 27 24 20 16 15 15 17 19 23 28 31 31 37 42 46 51 50 50
0 8 13 4 6 7 9 9 6 5 7 9 9 14 15 16 10 19 21 19 15 11 6 3 12 13 16 21 20 13 17 17 16 12 11 11 10 13 15 19 24 26 30 38 40 42 48 53 54
2 8 3 12 11 4 8 10 11 2 17 13 13 11 9 9 11 19 20 23 19 15 14 8 6 10 12 12 13 11 12 12 9 6 6 7 12 17 20 24 26 28 31 35 40 43 48 55 55
2 1 10 6 15 3 8 5 6 12 25 24 20 20 19 17 17 17 21 25 26 22 23 19 15 17 17 16 18 14 14 12 10 10 12 13 17 18 19 25 30 36 40 41 42 45 52 49 58
3 4 3 4 9 9 6 9 5 27 22 26 26 26 25 30 25 24 25 27 26 25 30 30 29 28 28 27 26 24 21 16 15 15 13 8 11 19 27 34 39 43 49 53 54 55 53 58 59
9 6 3 4 6 11 7 15 20 17 16 19 24 26 22 18 22 24 25 28 33 36 28 33 37 34 31 30 30 26 20 19 14 8 4 10 17 22 28 34 39 43 48 53 54 58 57 55 59
6 5 2 3 2 19 10 20 21 11 12 17 20 16 7 7 6 7 13 18 21 16 17 25 24 24 27 28 26 23 18 16 14 12 7 8 15 24 30 35 37 41 45 48 53 56 57 62 57
4 3 7 4 6 11 15 31 10 7 8 13 9 17 19 20 24 28 28 22 21 24 25 26 25 26 26 28 29 25 20 15 11 5 5 11 17 27 35 38 40 43 47 51 49 52 63 62 52
2 3 2 7 10 5 18 10 1 5 9 9 12 14 18 22 27 34 40 44 44 45 42 40 37 32 29 24 18 13 6 0 6 12 18 25 33 41 48 49 49 49 45 47 52 51 55 63 58
4 4 3 11 16 14 8 10 9 8 6 6 9 12 15 19 25 29 33 35 35 36 31 27 22 17 13 8 3 2 5 10 17 25 32 39 44 52 56 58 59 60 58 59 54 51 53 55 60
4 3 6 9 10 8 3 10 2 5 15 12 10 12 15 18 20 23 23 22 23 22 18 15 11 7 5 1 5 9 14 20 28 35 41 47 50 51 55 60 63 62 58 60 59 57 51 52 53
3 4 3 3 1 8 3 6 6 9 18 20 19 18 17 17 18 18 16 15 12 10 8 6 3 3 7 12 16 20 26 31 36 41 47 52 56 59 59 61 64 61 62 63 58 58 55 51 54
7 8 8 5 5 4 4 9 18 12 13 23 27 24 20 17 16 14 12 13 13 13 12 12 15 17 19 22 25 31 35 41 46 52 57 58 62 65 66 64 66 63 60 63 60 60 58 56 56
6 4 4 9 7 14 5 14 3 5 13 15 18 26 23 18 15 14 16 18 20 21 23 24 23 21 23 26 31 36 42 48 54 60 62 66 68 71 70 69 65 60 62 61 62 62 58 58 60
4 5 6 8 3 9 10 9 19 8 10 5 14 24 23 13 7 17 26 30 32 33 32 28 25 24 27 33 38 44 50 55 60 65 69 71 73 77 75 72 70 59 59 59 59 60 58 57 60
5 7 5 2 8 12 11 16 18 10 15 11 17 22 25 22 18 23 31 39 41 37 32 29 28 30 32 40 47 53 58 63 69 75 80 84 85 81 73 68 65 58 57 58 59 59 57 58 61
4 6 3 5 7 9 14 13 4 15 16 22 29 25 25 32 49 50 44 49 46 44 36 31 32 36 39 47 54 61 65 69 73 79 82 84 79 70 63 60 58 55 53 49 56 58 58 59 62
11 10 10 7 7 6 6 25 16 27 10 40 51 56 59 63 69 60 47 35 33 27 32 36 40 45 47 53 60 63 64 68 74 76 77 74 68 58 56 53 53 48 41 40 47 49 50 55 60
Wind_Direction_500mb
345 343 358 19 249 99 71 49 288 344 8 352 91 29 62 32 15 50 132 169 182 188 182 183 181 179 180 189 193 191 191 191 191 193 194 186 173 165 165 166 168 169 167 162 159 167 170 176 175
348 340 350 8 342 115 66 309 344 339 106 96 82 58 50 53 32 56 58 180 179 195 185 184 185 186 186 187 193 194 194 194 195 197 196 189 181 173 171 171 172 172 174 175 176 179 185 188 184
11 354 338 51 71 69 333 332 320 310 299 16 96 56 52 24 21 21 126 168 201 181 185 186 188 191 190 189 193 194 196 194 194 196 199 196 188 180 177 177 176 177 179 184 186 187 191 191 187
348 19 43 23 57 84 305 328 331 291 96 27 107 86 65 26 41 66 113 141 162 180 186 190 193 195 194 195 198 195 191 192 195 197 199 196 191 186 183 183 185 186 191 195 192 196 201 195 192
331 47 45 81 68 305 296 319 340 76 76 81 5 118 95 69 70 102 106 119 143 170 181 190 195 197 199 202 208 204 196 193 196 198 200 197 193 191 188 190 197 204 208 214 216 214 217 209 203
327 23 161 154 100 321 312 338 336 49 72 85 106 101 95 134 120 117 124 130 157 176 188 194 197 200 204 208 213 214 209 202 202 201 203 204 204 203 203 204 212 218 226 227 227 229 232 226 218
68 27 171 166 238 277 21 346 27 21 37 44 15 112 109 89 128 168 169 163 167 184 201 205 206 206 208 212 216 217 217 214 212 211 213 213 214 217 219 220 226 232 232 231 231 236 239 237 231
129 77 158 232 222 221 5 43 4 7 33 61 49 80 118 325 10 201 199 195 192 198 207 215 218 217 214 216 217 219 218 216 214 214 218 223 227 228 229 232 236 241 242 243 244 244 244 244 241
141 125 218 228 196 156 46 23 17 41 34 53 98 78 75 58 45 192 211 206 212 219 224 230 229 228 227 224 222 222 220 219 217 216 216 220 226 232 238 243 248 250 252 256 259 258 256 256 253
82 229 215 243 234 113 57 264 309 271 344 312 201 49 26 32 68 130 159 161 188 207 236 246 243 237 234 230 229 226 223 223 224 224 225 231 236 242 248 252 255 258 260 262 262 262 261 258 257
141 199 213 215 232 263 296 257 211 219 262 232 255 293 298 285 265 232 197 172 163 201 252 260 252 243 237 234 228 229 234 234 234 240 246 245 249 253 259 266 270 277 279 275 272 269 266 265 263
204 194 200 235 272 264 239 225 217 211 258 279 258 275 268 267 267 236 221 213 239 239 260 275 256 241 236 238 235 241 241 248 243 249 255 266 268 274 278 286 289 288 288 284 280 278 273 270 268
201 275 199 310 263 243 253 234 239 233 269 273 268 283 293 285 269 225 213 224 245 270 279 266 257 239 225 230 234 236 235 230 230 243 252 261 282 286 293 297 299 296 294 291 285 281 281 278 276
115 282 306 358 277 265 255 254 211 62 331 313 291 288 303 284 270 216 222 226 233 239 260 273 251 254 240 230 223 214 227 227 232 243 258 274 288 305 308 307 307 310 305 296 289 288 285 285 281
297 295 305 12 354 48 222 231 229 25 10 339 330 346 311 294 273 256 245 243 256 240 236 210 197 203 200 198 199 185 191 192 214 238 254 266 276 282 290 293 297 304 301 305 303 289 289 290 286
113 212 232 31 15 83 233 192 175 2 335 313 313 306 296 290 291 272 263 261 258 251 239 227 204 188 187 179 182 187 190 209 216 228 247 263 286 296 306 312 312 310 306 302 297 294 291 291 287
47 225 208 193 46 333 314 285 129 349 336 313 310 304 297 281 264 258 251 252 246 233 226 221 207 198 190 184 190 201 208 223 246 259 274 292 325 320 313 311 310 306 301 296 293 290 287 284 283
165 161 141 307 7 331 284 272 319 345 335 319 316 310 308 308 279 257 248 247 249 244 232 213 210 203 195 198 207 209 212 214 220 208 256 296 308 322 327 322 319 318 312 308 299 291 284 277 278
118 109 358 265 335 324 297 285 312 325 323 346 353 350 29 14 349 264 236 242 248 209 187 191 200 201 204 206 212 213 182 169 180 209 247 312 332 334 333 327 326 327 325 312 302 293 290 285 278
75 13 335 265 290 310 318 301 314 356 8 352 29 79 88 93 92 96 101 114 134 148 155 159 164 153 147 149 149 149 156 169 183 219 290 312 327 328 322 318 315 317 319 320 311 294 294 287 278
89 279 233 294 312 226 308 266 211 109 69 72 74 90 95 98 98 100 101 103 110 116 123 129 130 133 134 137 143 149 146 193 303 312 317 321 320 316 316 313 310 310 307 307 313 304 292 286 278
309 188 278 306 322 314 356 291 235 200 150 115 107 104 105 110 112 108 105 108 109 107 111 114 121 131 137 145 164 233 286 305 305 310 312 311 310 310 310 308 306 302 302 304 305 304 296 291 279
56 6 353 323 292 300 205 251 128 193 215 186 165 147 135 126 125 119 116 114 114 116 122 124 124 123 125 221 293 303 303 301 303 306 307 306 304 301 299 297 294 294 292 294 299 297 295 287 284
88 249 58 96 211 251 8 268 270 207 228 201 195 184 165 150 138 131 128 126 131 137 139 140 167 267 279 287 297 305 312 316 319 319 316 313 309 305 299 294 288 283 281 284 290 291 293 289 282
10 334 305 254 226 325 164 263 264 265 263 232 204 193 185 180 170 164 173 187 200 205 217 235 255 271 281 291 303 314 316 316 316 317 315 312 310 306 303 297 288 280 274 274 279 284 287 291 289
6 317 299 294 285 307 171 248 275 328 304 245 230 207 202 204 206 223 237 239 243 249 252 254 261 272 282 293 304 312 314 316 313 312 310 308 307 307 306 300 294 285 271 270 275 278 283 287 287
79 266 13 277 248 267 253 270 269 308 253 206 206 207 210 206 272 271 265 260 256 258 258 263 270 278 291 301 306 307 309 310 308 307 305 305 305 305 305 299 295 287 275 268 271 273 280 291 289
334 129 247 219 278 271 249 273 254 353 348 292 264 246 227 218 315 310 297 275 264 261 262 268 273 280 288 297 304 306 306 304 303 303 304 304 304 302 299 293 290 287 280 268 271 273 279 288 290
285 234 117 296 243 270 294 262 153 323 359 0 346 317 293 288 302 309 301 288 263 261 265 273 281 290 299 303 305 306 305 301 300 300 301 302 305 303 295 291 292 290 280 270 271 273 279 284 286
254 266 231 210 217 234 288 260 275 281 25 332 322 320 314 307 302 305 297 274 263 275 290 289 294 300 305 303 305 306 304 301 300 299 298 301 300 297 292 292 295 291 277 272 270 274 281 283 281
Wind_Speed_850mb
17 18 13 10 3 1 6 8 5 21 4 5 4 6 13 12 9 7 5 16 17 31 40 39 35 30 26 21 17 18 22 27 28 26 22 19 20 21 23 27 29 29 26 24 25 26 25 23 19
14 12 9 4 3 3 5 6 21 16 8 5 11 10 14 10 10 5 4 13 13 25 40 39 36 31 26 21 18 17 19 25 26 24 22 20 20 21 21 25 28 27 23 21 22 23 22 20 18
9 7 5 5 4 4 7 7 23 14 5 8 7 12 6 7 12 6 2 9 9 30 37 36 34 30 25 21 18 17 16 22 24 23 21 20 19 19 21 24 27 24 20 17 20 19 19 18 19
8 3 6 2 7 4 8 18 14 8 4 4 9 13 7 9 5 8 11 10 10 26 34 32 32 28 24 20 17 17 16 21 21 21 21 20 21 21 21 24 25 21 18 15 16 19 17 18 20
7 3 2 4 4 1 6 19 15 3 5 6 1 9 9 11 13 15 14 11 13 28 32 30 30 28 24 20 16 15 15 18 19 19 19 20 21 20 21 23 22 20 18 17 16 17 18 18 21
3 1 2 1 2 3 3 15 8 14 8 7 11 8 6 8 6 9 11 11 14 21 25 27 29 28 24 20 18 16 16 16 17 17 17 18 19 18 19 20 21 20 20 20 19 18 19 20 22
0 1 4 4 1 4 5 13 12 12 11 13 3 5 6 3 3 9 10 12 15 20 23 26 28 28 27 24 21 19 16 16 15 14 15 17 19 19 19 20 21 21 21 21 22 21 22 23 25
4 4 5 4 5 5 6 4 4 10 13 8 9 4 4 5 1 7 11 14 15 18 23 26 28 30 30 28 26 24 20 18 17 16 16 16 18 20 21 22 22 22 22 23 24 24 25 26 27
11 2 7 8 11 6 3 5 7 6 3 8 10 11 8 9 4 3 8 11 17 17 19 22 28 31 31 30 29 28 26 24 22 21 21 20 20 21 23 25 25 26 26 25 26 26 28 29 30
7 7 13 6 6 5 3 3 5 4 6 3 1 4 4 4 6 7 8 9 12 12 12 19 25 31 33 32 32 33 31 31 28 26 23 22 21 21 23 24 26 29 31 32 32 31 31 33 34
7 7 8 6 10 6 7 9 7 5 9 11 9 13 10 8 7 6 6 9 8 5 7 8 18 29 35 33 36 29 31 31 27 24 24 24 22 22 22 24 27 30 33 36 38 38 38 39 39
7 8 11 5 11 10 9 6 8 15 11 7 10 14 13 12 13 13 13 9 5 6 7 11 15 23 32 33 28 27 28 23 23 21 19 20 22 22 22 23 26 29 31 35 40 43 46 45 47
6 2 4 2 13 18 9 16 11 16 10 19 22 16 17 20 17 19 15 11 8 6 10 13 20 24 27 35 30 29 25 27 24 20 16 15 15 17 19 23 28 31 31 37 42 46 51 50 50
0 8 13 4 6 7 9 9 6 5 7 9 9 14 15 16 10 19 21 19 15 11 6 3 12 13 16 21 20 13 17 17 16 12 11 11 10 13 15 19 24 26 30 38 40 42 48 53 54
2 8 3 12 11 4 8 10 11 2 17 13 13 11 9 9 11 19 20 23 19 15 14 8 6 10 12 12 13 11 12 12 9 6 6 7 12 17 20 24 26 28 31 35 40 43 48 55 55
2 1 10 6 15 3 8 5 6 12 25 24 20 20 19 17 17 17 21 25 26 22 23 19 15 17 17 16 18 14 14 12 10 10 12 13 17 18 19 25 30 36 40 41 42 45 52 49 58
3 4 3 4 9 9 6 9 5 27 22 26 26 26 25 30 25 24 25 27 26 25 30 30 29 28 28 27 26 24 21 16 15 15 13 8 11 19 27 34 39 43 49 53 54 55 53 58 59
9 6 3 4 6 11 7 15 20 17 16 19 24 26 22 18 22 24 25 28 33 36 28 33 37 34 31 30 30 26 20 19 14 8 4 10 17 22 28 34 39 43 48 53 54 58 57 55 59
6 5 2 3 2 19 10 20 21 11 12 17 20 16 7 7 6 7 13 18 21 16 17 25 24 24 27 28 26 23 18 16 14 12 7 8 15 24 30 35 37 41 45 48 53 56 57 62 57
4 3 7 4 6 11 15 31 10 7 8 13 9 17 19 20 24 28 28 22 21 24 25 26 25 26 26 28 29 25 20 15 11 5 5 11 17 27 35 38 40 43 47 51 49 52 63 62 52
2 3 2 7 10 5 18 10 1 5 9 9 12 14 18 22 27 34 40 44 44 45 42 40 37 32 29 24 18 13 6 0 6 12 18 25 33 41 48 49 49 49 45 47 52 51 55 63 58
4 4 3 11 16 14 8 10 9 8 6 6 9 12 15 19 25 29 33 35 35 36 31 27 22 17 13 8 3 2 5 10 17 25 32 39 44 52 56 58 59 60 58 59 54 51 53 55 60
4 3 6 9 10 8 3 10 2 5 15 12 10 12 15 18 20 23 23 22 23 22 18 15 11 7 5 1 5 9 14 20 28 35 41 47 50 51 55 60 63 62 58 60 59 57 51 52 53
3 4 3 3 1 8 3 6 6 9 18 20 19 18 17 17 18 18 16 15 12 10 8 6 3 3 7 12 16 20 26 31 36 41 47 52 56 59 59 61 64 61 62 63 58 58 55 51 54
7 8 8 5 5 4 4 9 18 12 13 23 27 24 20 17 16 14 12 13 13 13 12 12 15 17 19 22 25 31 35 41 46 52 57 58 62 65 66 64 66 63 60 63 60 60 58 56 56
6 4 4 9 7 14 5 14 3 5 13 15 18 26 23 18 15 14 16 18 20 21 23 24 23 21 23 26 31 36 42 48 54 60 62 66 68 71 70 69 65 60 62 61 62 62 58 58 60
4 5 6 8 3 9 10 9 19 8 10 5 14 24 23 13 7 17 26 30 32 33 32 28 25 24 27 33 38 44 50 55 60 65 69 71 73 77 75 72 70 59 59 59 59 60 58 57 60
5 7 5 2 8 12 11 16 18 10 15 11 17 22 25 22 18 23 31 39 41 37 32 29 28 30 32 40 47 53 58 63 69 75 80 84 85 81 73 68 65 58 57 58 59 59 57 58 61
4 6 3 5 7 9 14 13 4 15 16 22 29 25 25 32 49 50 44 49 46 44 36 31 32 36 39 47 54 61 65 69 73 79 82 84 79 70 63 60 58 55 53 49 56 58 58 59 62
11 10 10 7 7 6 6 25 16 27 10 40 51 56 59 63 69 60 47 35 33 27 32 36 40 45 47 53 60 63 64 68 74 76 77 74 68 58 56 53 53 48 41 40 47 49 50 55 60
Wind_Direction_850mb
345 343 358 19 249 99 71 49 288 344 8 352 91 29 62 32 15 50 132 169 182 188 182 183 181 179 180 189 193 191 191 191 191 193 194 186 173 165 165 166 168 169 167 162 159 167 170 176 175
348 340 350 8 342 115 66 309 344 339 106 96 82 58 50 53 32 56 58 180 179 195 185 184 185 186 186 187 193 194 194 194 195 197 196 189 181 173 171 171 172 172 174 175 176 179 185 188 184
11 354 338 51 71 69 333 332 320 310 299 16 96 56 52 24 21 21 126 168 201 181 185 186 188 191 190 189 193 194 196 194 194 196 199 196 188 180 177 177 176 177 179 184 186 187 191 191 187
348 19 43 23 57 84 305 328 331 291 96 27 107 86 65 26 41 66 113 141 162 180 186 190 193 195 194 195 198 195 191 192 195 197 199 196 191 186 183 183 185 186 191 195 192 196 201 195 192
331 47 45 81 68 305 296 319 340 76 76 81 5 118 95 69 70 102 106 119 143 170 181 190 195 197 199 202 208 204 196 193 196 198 200 197 193 191 188 190 197 204 208 214 216 214 217 209 203
327 23 161 154 100 321 312 338 336 49 72 85 106 101 95 134 120 117 124 130 157 176 188 194 197 200 204 208 213 214 209 202 202 201 203 204 204 203 203 204 212 218 226 227 227 229 232 226 218
68 27 171 166 238 277 21 346 27 21 37 44 15 112 109 89 128 168 169 163 167 184 201 205 206 206 208 212 216 217 217 214 212 211 213 213 214 217 219 220 226 232 232 231 231 236 239 237 231
129 77 158 232 222 221 5 43 4 7 33 61 49 80 118 325 10 201 199 195 192 198 207 215 218 217 214 216 217 219 218 216 214 214 218 223 227 228 229 232 236 241 242 243 244 244 244 244 241
141 125 218 228 196 156 46 23 17 41 34 53 98 78 75 58 45 192 211 206 212 219 224 230 229 228 227 224 222 222 220 219 217 216 216 220 226 232 238 243 248 250 252 256 259 258 256 256 253
82 229 215 243 234 113 57 264 309 271 344 312 201 49 26 32 68 130 159 161 188 207 236 246 243 237 234 230 229 226 223 223 224 224 225 231 236 242 248 252 255 258 260 262 262 262 261 258 257
141 199 213 215 232 263 296 257 211 219 262 232 255 293 298 285 265 232 197 172 163 201 252 260 252 243 237 234 228 229 234 234 234 240 246 245 249 253 259 266 270 277 279 275 272 269 266 265 263
204 194 200 235 272 264 239 225 217 211 258 279 258 275 268 267 267 236 221 213 239 239 260 275 256 241 236 238 235 241 241 248 243 249 255 266 268 274 278 286 289 288 288 284 280 278 273 270 268
201 275 199 310 263 243 253 234 239 233 269 273 268 283 293 285 269 225 213 224 245 270 279 266 257 239 225 230 234 236 235 230 230 243 252 261 282 286 293 297 299 296 294 291 285 281 281 278 276
115 282 306 358 277 265 255 254 211 62 331 313 291 288 303 284 270 216 222 226 233 239 260 273 251 254 240 230 223 214 227 227 232 243 258 274 288 305 308 307 307 310 305 296 289 288 285 285 281
297 295 305 12 354 48 222 231 229 25 10 339 330 346 311 294 273 256 245 243 256 240 236 210 197 203 200 198 199 185 191 192 214 238 254 266 276 282 290 293 297 304 301 305 303 289 289 290 286
113 212 232 31 15 83 233 192 175 2 335 313 313 306 296 290 291 272 263 261 258 251 239 227 204 188 187 179 182 187 190 209 216 228 247 263 286 296 306 312 312 310 306 302 297 294 291 291 287
47 225 208 193 46 333 314 285 129 349 336 313 310 304 297 281 264 258 251 252 246 233 226 221 207 198 190 184 190 201 208 223 246 259 274 292 325 320 313 311 310 306 301 296 293 290 287 284 283
165 161 141 307 7 331 284 272 319 345 335 319 316 310 308 308 279 257 248 247 249 244 232 213 210 203 195 198 207 209 212 214 220 208 256 296 308 322 327 322 319 318 312 308 299 291 284 277 278
118 109 358 265 335 324 297 285 312 325 323 346 353 350 29 14 349 264 236 242 248 209 187 191 200 201 204 206 212 213 182 169 180 209 247 312 332 334 333 327 326 327 325 312 302 293 290 285 278
75 13 335 265 290 310 318 301 314 356 8 352 29 79 88 93 92 96 101 114 134 148 155 159 164 153 147 149 149 149 156 169 183 219 290 312 327 328 322 318 315 317 319 320 311 294 294 287 278
89 279 233 294 312 226 308 266 211 109 69 72 74 90 95 98 98 100 101 103 110 116 123 129 130 133 134 137 143 149 146 193 303 312 317 321 320 316 316 313 310 310 307 307 313 304 292 286 278
309 188 278 306 322 314 356 291 235 200 150 115 107 104 105 110 112 108 105 108 109 107 111 114 121 131 137 145 164 233 286 305 305 310 312 311 310 310 310 308 306 302 302 304 305 304 296 291 279
56 6 353 323 292 300 205 251 128 193 215 186 165 147 135 126 125 119 116 114 114 116 122 124 124 123 125 221 293 303 303 301 303 306 307 306 304 301 299 297 294 294 292 294 299 297 295 287 284
88 249 58 96 211 251 8 268 270 207 228 201 195 184 165 150 138 131 128 126 131 137 139 140 167 267 279 287 297 305 312 316 319 319 316 313 309 305 299 294 288 283 281 284 290 291 293 289 282
10 334 305 254 226 325 164 263 264 265 263 232 204 193 185 180 170 164 173 187 200 205 217 235 255 271 281 291 303 314 316 316 316 317 315 312 310 306 303 297 288 280 274 274 279 284 287 291 289
6 317 299 294 285 307 171 248 275 328 304 245 230 207 202 204 206 223 237 239 243 249 252 254 261 272 282 293 304 312 314 316 313 312 310 308 307 307 306 300 294 285 271 270 275 278 283 287 287
79 266 13 277 248 267 253 270 269 308 253 206 206 207 210 206 272 271 265 260 256 258 258 263 270 278 291 301 306 307 309 310 308 307 305 305 305 305 305 299 295 287 275 268 271 273 280 291 289
334 129 247 219 278 271 249 273 254 353 348 292 264 246 227 218 315 310 297 275 264 261 262 268 273 280 288 297 304 306 306 304 303 303 304 304 304 302 299 293 290 287 280 268 271 273 279 288 290
285 234 117 296 243 270 294 262 153 323 359 0 346 317 293 288 302 309 301 288 263 261 265 273 281 290 299 303 305 306 305 301 300 300 301 302 305 303 295 291 292 290 280 270 271 273 279 284 286
254 266 231 210 217 234 288 260 275 281 25 332 322 320 314 307 302 305 297 274 263 275 290 289 294 300 305 303 305 306 304 301 300 299 298 301 300 297 292 292 295 291 277 272 270 274 281 283 281